User: anonymous   Login
Location: Godiavel Galaoual
(15.2485°N, 12.6604°W)
Time: 02:57:29
(UTC+00:00)
Language:

YUBILEINY - Orbit

View from above orbital plane
View from above orbital plane
View from above satellite
View from above satellite

Ground track
Ground track

The orbit data is extracted from the following two-line orbital elements,

1 32953U 08025A   21216.75916463  .00000021  00000-0  80971-4 0  9992
2 32953  82.5032  20.8810 0018882 230.3468 129.5944 12.43103186598988
Epoch (UTC): 04 August 2021 18:13:11
Eccentricity: 0.0018882
inclination: 82.5032°
perigee height: 1478 km
apogee height: 1508 km
right ascension of ascending node: 20.8810°
argument of perigee: 230.3468°
revolutions per day: 12.43103186
mean anomaly at epoch: 129.5944°
orbit number at epoch: 59898

The dashed part of the orbit path shows where the satellite is in the earth's shadow,  

DLR